User: anonymous   Login
Location: *
(57.8420°S, 159.8600°W)
Time: 01:44:13
(UTC+00:00)
Language:

USA 238 DEB - Orbit

View from above orbital plane
View from above orbital plane
View from above satellite
View from above satellite

Ground track
Ground track

The orbit data is extracted from the following two-line orbital elements,

1 38773U 12048P   21197.88092409 0.00000000  00000-0  00000-0 0    06
2 38773  63.4444 107.0251 0154037 358.8777   1.1223 13.40816998    04
Epoch (UTC): 16 July 2021 21:08:31
Eccentricity: 0.0154037
inclination: 63.4444°
perigee height: 991 km
apogee height: 1221 km
right ascension of ascending node: 107.0251°
argument of perigee: 358.8777°
revolutions per day: 13.40816998
mean anomaly at epoch: 1.1223°
orbit number at epoch: 0

The dashed part of the orbit path shows where the satellite is in the earth's shadow,  

DLR